When you browse on this site, cookies collect data to enhance your experience and personalize the content and advertising you see.
Visit our Privacy Policy to learn more. By continuing to use the site, you agree to this use of cookies and data.
  • In Deutschland
  • Länderverzeichnis
  • Für 7 Tage
  • Wassertemperatur
  • Satellitenkarten
  • Wetterkarte
  • Widgets
  • user-avatar
    Anmelden

    Stündliche Wetter Naumivka

    Heute, 21 Januar, Montag

    Zeit Temperatur Niederschläge Wind Luftdruck Luftfeuchtigkeit
    00:00 +3°C° 0 mm 2 m/S 758 mmHg 83%
    01:00 +4°C° 0 mm 2 m/S 758 mmHg 84%
    02:00 +3°C° 0 mm 3 m/S 757 mmHg 84%
    03:00 +4°C° 0 mm 4 m/S 757 mmHg 83%
    04:00 +4°C° 0 mm 4 m/S 756 mmHg 82%
    05:00 +5°C° 0 mm 5 m/S 756 mmHg 81%
    06:00 +4°C° 0.1 mm 6 m/S 755 mmHg 82%
    07:00 +4°C° 0.1 mm 6 m/S 755 mmHg 83%
    08:00 +5°C° 0.1 mm 7 m/S 755 mmHg 84%
    09:00 +5°C° 0.2 mm 6 m/S 755 mmHg 86%
    10:00 +5°C° 0.2 mm 6 m/S 755 mmHg 89%
    11:00 +6°C° 0.2 mm 5 m/S 755 mmHg 91%
    12:00 +6°C° 0 mm 5 m/S 755 mmHg 89%
    13:00 +6°C° 0 mm 5 m/S 755 mmHg 86%
    14:00 +5°C° 0 mm 5 m/S 755 mmHg 84%
    15:00 +3°C° 0 mm 5 m/S 756 mmHg 85%
    16:00 +3°C° 0 mm 5 m/S 756 mmHg 86%
    17:00 +2°C° 0 mm 5 m/S 757 mmHg 87%
    18:00 +1°C° 0 mm 5 m/S 758 mmHg 85%
    19:00 0°C° 0 mm 5 m/S 758 mmHg 84%
    20:00 -1°C° 0 mm 5 m/S 758 mmHg 83%
    21:00 -1°C° 0 mm 5 m/S 759 mmHg 82%
    22:00 -1°C° 0 mm 5 m/S 760 mmHg 82%
    23:00 -2°C° 0 mm 5 m/S 760 mmHg 82%

    Morgen, 22 Januar, Dienstag

    Zeit Temperatur Niederschläge Wind Luftdruck Luftfeuchtigkeit
    00:00 -2°C° 0 mm 5 m/S 761 mmHg 82%
    01:00 -4°C° 0 mm 5 m/S 761 mmHg 83%
    02:00 -4°C° 0 mm 4 m/S 761 mmHg 84%
    03:00 -4°C° 0 mm 4 m/S 761 mmHg 84%
    04:00 -4°C° 0 mm 4 m/S 762 mmHg 83%
    05:00 -5°C° 0 mm 4 m/S 762 mmHg 83%
    06:00 -5°C° 0 mm 4 m/S 762 mmHg 82%
    07:00 -5°C° 0 mm 4 m/S 762 mmHg 82%
    08:00 -5°C° 0 mm 4 m/S 763 mmHg 81%
    09:00 -4°C° 0 mm 4 m/S 763 mmHg 76%
    10:00 -3°C° 0 mm 4 m/S 763 mmHg 71%
    11:00 -1°C° 0 mm 4 m/S 763 mmHg 67%
    12:00 -1°C° 0 mm 4 m/S 762 mmHg 64%
    13:00 +1°C° 0 mm 3 m/S 762 mmHg 62%
    14:00 +2°C° 0 mm 3 m/S 762 mmHg 60%
    15:00 +1°C° 0 mm 3 m/S 762 mmHg 65%
    16:00 -1°C° 0 mm 4 m/S 761 mmHg 70%
    17:00 -2°C° 0 mm 4 m/S 761 mmHg 75%
    18:00 -2°C° 0 mm 4 m/S 761 mmHg 76%
    19:00 -2°C° 0 mm 4 m/S 761 mmHg 78%
    20:00 -4°C° 0 mm 5 m/S 761 mmHg 79%
    21:00 -3°C° 0 mm 4 m/S 760 mmHg 79%
    22:00 -3°C° 0 mm 4 m/S 760 mmHg 80%
    23:00 -3°C° 0 mm 4 m/S 760 mmHg 80%

    übermorgen, 23 Januar, Mittwoch

    Zeit Temperatur Niederschläge Wind Luftdruck Luftfeuchtigkeit
    00:00 -3°C° 0 mm 4 m/S 759 mmHg 80%
    01:00 -2°C° 0 mm 3 m/S 759 mmHg 80%
    02:00 -2°C° 0 mm 3 m/S 758 mmHg 81%
    03:00 -2°C° 0 mm 3 m/S 758 mmHg 81%
    04:00 -2°C° 0 mm 3 m/S 757 mmHg 82%
    05:00 -2°C° 0 mm 3 m/S 757 mmHg 83%
    06:00 -1°C° 0 mm 3 m/S 757 mmHg 82%
    07:00 -1°C° 0 mm 3 m/S 756 mmHg 81%
    08:00 0°C° 0 mm 3 m/S 756 mmHg 80%
    09:00 +2°C° 0 mm 3 m/S 756 mmHg 74%
    10:00 +4°C° 0 mm 3 m/S 755 mmHg 68%
    11:00 +7°C° 0 mm 2 m/S 755 mmHg 62%
    12:00 +8°C° 0 mm 3 m/S 754 mmHg 62%
    13:00 +8°C° 0 mm 4 m/S 754 mmHg 63%
    14:00 +10°C° 0 mm 4 m/S 753 mmHg 64%
    15:00 +8°C° 0 mm 5 m/S 753 mmHg 67%
    16:00 +7°C° 0 mm 5 m/S 753 mmHg 70%
    17:00 +7°C° 0 mm 6 m/S 752 mmHg 72%
    18:00 +7°C° 0 mm 6 m/S 752 mmHg 71%
    19:00 +6°C° 0 mm 7 m/S 752 mmHg 70%
    20:00 +6°C° 0 mm 7 m/S 752 mmHg 69%
    21:00 +6°C° 0.1 mm 7 m/S 752 mmHg 70%
    22:00 +8°C° 0.1 mm 7 m/S 752 mmHg 71%
    23:00 +7°C° 0.1 mm 8 m/S 752 mmHg 72%

    24 Januar, Donnerstag

    Zeit Temperatur Niederschläge Wind Luftdruck Luftfeuchtigkeit
    00:00 +7°C° 0 mm 8 m/S 752 mmHg 76%
    01:00 +7°C° 0 mm 8 m/S 752 mmHg 80%
    02:00 +7°C° 0 mm 8 m/S 752 mmHg 84%
    03:00 +8°C° 0 mm 7 m/S 752 mmHg 86%
    04:00 +7°C° 0 mm 6 m/S 752 mmHg 89%
    05:00 +7°C° 0 mm 5 m/S 752 mmHg 92%
    06:00 +7°C° 0 mm 5 m/S 753 mmHg 93%
    07:00 +7°C° 0 mm 4 m/S 753 mmHg 94%
    08:00 +8°C° 0 mm 3 m/S 753 mmHg 94%
    09:00 +8°C° 0.1 mm 3 m/S 753 mmHg 93%
    10:00 +9°C° 0.1 mm 3 m/S 754 mmHg 92%
    11:00 +9°C° 0.1 mm 3 m/S 754 mmHg 90%
    12:00 +9°C° 0 mm 2 m/S 753 mmHg 88%
    13:00 +11°C° 0 mm 1 m/S 753 mmHg 85%
    14:00 +11°C° 0 mm 0 m/S 753 mmHg 82%
    15:00 +11°C° 0 mm 1 m/S 753 mmHg 84%
    16:00 +9°C° 0 mm 3 m/S 753 mmHg 87%
    17:00 +8°C° 0 mm 4 m/S 753 mmHg 89%
    18:00 +7°C° 0 mm 5 m/S 753 mmHg 90%
    19:00 +7°C° 0 mm 5 m/S 753 mmHg 91%
    20:00 +5°C° 0 mm 6 m/S 753 mmHg 92%
    21:00 +5°C° 0 mm 6 m/S 753 mmHg 92%
    22:00 +5°C° 0 mm 7 m/S 753 mmHg 92%
    23:00 +4°C° 0 mm 7 m/S 753 mmHg 91%

    25 Januar, Freitag

    Zeit Temperatur Niederschläge Wind Luftdruck Luftfeuchtigkeit
    00:00 +4°C° 0 mm 7 m/S 753 mmHg 91%
    01:00 +2°C° 0 mm 8 m/S 753 mmHg 91%
    02:00 +2°C° 0 mm 8 m/S 752 mmHg 91%
    03:00 +2°C° 0 mm 8 m/S 752 mmHg 90%
    04:00 +3°C° 0 mm 7 m/S 752 mmHg 90%
    05:00 +2°C° 0 mm 7 m/S 752 mmHg 89%
    06:00 +2°C° 0 mm 7 m/S 752 mmHg 89%
    07:00 +2°C° 0 mm 6 m/S 753 mmHg 89%
    08:00 +2°C° 0 mm 5 m/S 753 mmHg 89%
    09:00 +2°C° 0 mm 5 m/S 753 mmHg 87%
    10:00 +3°C° 0 mm 5 m/S 753 mmHg 84%
    11:00 +3°C° 0 mm 5 m/S 753 mmHg 82%
    12:00 +5°C° 0 mm 5 m/S 753 mmHg 80%
    13:00 +6°C° 0 mm 4 m/S 753 mmHg 78%
    14:00 +6°C° 0 mm 4 m/S 753 mmHg 77%
    15:00 +5°C° 0 mm 3 m/S 753 mmHg 81%
    16:00 +5°C° 0 mm 3 m/S 753 mmHg 85%
    17:00 +4°C° 0 mm 3 m/S 753 mmHg 89%
    18:00 +4°C° 0 mm 3 m/S 753 mmHg 91%
    19:00 +3°C° 0 mm 3 m/S 753 mmHg 93%
    20:00 +4°C° 0 mm 2 m/S 753 mmHg 96%
    21:00 +4°C° 0 mm 2 m/S 753 mmHg 96%
    22:00 +4°C° 0 mm 2 m/S 753 mmHg 96%
    23:00 +5°C° 0 mm 1 m/S 754 mmHg 96%

    26 Januar, Samstag

    Zeit Temperatur Niederschläge Wind Luftdruck Luftfeuchtigkeit
    00:00 +5°C° 0 mm 1 m/S 753 mmHg 96%
    01:00 +5°C° 0 mm 1 m/S 753 mmHg 95%
    02:00 +5°C° 0 mm 1 m/S 753 mmHg 95%
    03:00 +4°C° 0 mm 2 m/S 753 mmHg 95%
    04:00 +4°C° 0 mm 2 m/S 753 mmHg 95%
    05:00 +3°C° 0 mm 3 m/S 752 mmHg 95%
    06:00 +3°C° 0 mm 3 m/S 752 mmHg 94%
    07:00 +3°C° 0 mm 3 m/S 752 mmHg 94%
    08:00 +3°C° 0 mm 3 m/S 752 mmHg 94%
    09:00 +5°C° 0 mm 3 m/S 752 mmHg 89%
    10:00 +7°C° 0 mm 3 m/S 752 mmHg 84%
    11:00 +7°C° 0 mm 4 m/S 752 mmHg 79%
    12:00 +8°C° 0 mm 4 m/S 752 mmHg 79%
    13:00 +8°C° 0 mm 4 m/S 751 mmHg 78%
    14:00 +8°C° 0 mm 4 m/S 751 mmHg 77%
    15:00 +7°C° 0.1 mm 4 m/S 751 mmHg 81%
    16:00 +7°C° 0.1 mm 5 m/S 751 mmHg 85%
    17:00 +6°C° 0.1 mm 5 m/S 751 mmHg 89%
    18:00 +6°C° 0.3 mm 4 m/S 751 mmHg 90%
    19:00 +5°C° 0.3 mm 4 m/S 751 mmHg 91%
    20:00 +5°C° 0.3 mm 3 m/S 751 mmHg 91%
    21:00 +5°C° 0.7 mm 3 m/S 751 mmHg 93%
    22:00 +6°C° 0.7 mm 2 m/S 750 mmHg 94%
    23:00 +7°C° 0.7 mm 1 m/S 750 mmHg 95%
    Mehr zeigen